| time (UTC) | temp F | wind direction | speed MPH | gust MPH | rain 1hr in | rain 24hr in | rain mn in | humidity % | barometer mb |
| 20260508231142 | 56 | 48 | 3.0 | 5.0 | 0.00 | 0.00 | 0.00 | 65 | 1026.9 |
| 20260508230943 | 56 | 45 | 3.0 | 5.0 | 0.00 | 0.00 | 0.00 | 65 | 1026.8 |
| 20260508230742 | 56 | 66 | 2.0 | 5.0 | 0.00 | 0.00 | 0.00 | 65 | 1026.8 |
| 20260508230541 | 56 | 58 | 3.0 | 5.0 | 0.00 | 0.00 | 0.00 | 65 | 1026.8 |
| 20260508230341 | 56 | 58 | 2.0 | 4.0 | 0.00 | 0.00 | 0.00 | 65 | 1026.8 |
| 20260508230140 | 56 | 58 | 2.0 | 4.0 | 0.00 | 0.00 | 0.00 | 65 | 1026.9 |
| 20260508225940 | 57 | 31 | 2.0 | 4.0 | 0.00 | 0.00 | 0.00 | 64 | 1026.8 |
| 20260508225734 | 57 | 28 | 1.0 | 4.0 | 0.00 | 0.00 | 0.00 | 64 | 1026.9 |
| 20260508225533 | 57 | 28 | 2.0 | 4.0 | 0.00 | 0.00 | 0.00 | 64 | 1026.8 |
| 20260508225333 | 57 | 28 | 1.0 | 4.0 | 0.00 | 0.00 | 0.00 | 64 | 1026.8 |
| 20260508225133 | 57 | 28 | 2.0 | 4.0 | 0.00 | 0.00 | 0.00 | 64 | 1026.8 |
| 20260508224934 | 57 | 10 | 2.0 | 5.0 | 0.00 | 0.00 | 0.00 | 64 | 1026.8 |
| 20260508224733 | 57 | 37 | 2.0 | 5.0 | 0.00 | 0.00 | 0.00 | 64 | 1026.7 |
| 20260508224533 | 57 | 49 | 3.0 | 5.0 | 0.00 | 0.00 | 0.00 | 64 | 1026.8 |
| 20260508224332 | 57 | 52 | 3.0 | 5.0 | 0.00 | 0.00 | 0.00 | 64 | 1026.7 |
| 20260508224132 | 57 | 56 | 4.0 | 5.0 | 0.00 | 0.00 | 0.00 | 64 | 1026.6 |
| 20260508223933 | 57 | 25 | 3.0 | 5.0 | 0.00 | 0.00 | 0.00 | 64 | 1026.7 |
| 20260508223732 | 57 | 56 | 4.0 | 5.0 | 0.00 | 0.00 | 0.00 | 64 | 1026.7 |
| 20260508223532 | 57 | 63 | 3.0 | 4.0 | 0.00 | 0.00 | 0.00 | 64 | 1026.8 |
| 20260508223332 | 57 | 52 | 3.0 | 5.0 | 0.00 | 0.00 | 0.00 | 64 | 1026.7 |
| 20260508223132 | 57 | 53 | 2.0 | 5.0 | 0.00 | 0.00 | 0.00 | 64 | 1026.7 |
| 20260508222931 | 57 | 52 | 2.0 | 5.0 | 0.00 | 0.00 | 0.00 | 63 | 1026.7 |
| 20260508222733 | 57 | 52 | 2.0 | 6.0 | 0.00 | 0.00 | 0.00 | 63 | 1026.7 |
| 20260508222532 | 57 | 52 | 2.0 | 6.0 | 0.00 | 0.00 | 0.00 | 63 | 1026.6 |
| 20260508222332 | 57 | 62 | 3.0 | 6.0 | 0.00 | 0.00 | 0.00 | 63 | 1026.6 |
| 20260508222132 | 57 | 80 | 2.0 | 6.0 | 0.00 | 0.00 | 0.00 | 63 | 1026.6 |
| 20260508221932 | 57 | 69 | 3.0 | 6.0 | 0.00 | 0.00 | 0.00 | 63 | 1026.6 |
| 20260508221731 | 57 | 65 | 3.0 | 9.0 | 0.00 | 0.00 | 0.00 | 63 | 1026.5 |
| 20260508221531 | 57 | 61 | 3.0 | 9.0 | 0.00 | 0.00 | 0.00 | 63 | 1026.5 |
| 20260508221333 | 57 | 48 | 3.0 | 9.0 | 0.00 | 0.00 | 0.00 | 63 | 1026.7 |
| 20260508221132 | 57 | 63 | 3.0 | 9.0 | 0.00 | 0.00 | 0.00 | 63 | 1026.7 |
| 20260508220932 | 58 | 48 | 3.0 | 9.0 | 0.00 | 0.00 | 0.00 | 62 | 1026.7 |
| 20260508220731 | 58 | 48 | 3.0 | 6.0 | 0.00 | 0.00 | 0.00 | 62 | 1026.6 |
| 20260508220531 | 58 | 52 | 3.0 | 6.0 | 0.00 | 0.00 | 0.00 | 62 | 1026.6 |
| 20260508220331 | 58 | 41 | 3.0 | 6.0 | 0.00 | 0.00 | 0.00 | 62 | 1026.6 |
| 20260508220131 | 58 | 51 | 3.0 | 6.0 | 0.00 | 0.00 | 0.00 | 62 | 1026.6 |
| 20260508215932 | 58 | 45 | 3.0 | 6.0 | 0.00 | 0.00 | 0.00 | 62 | 1026.6 |
| 20260508215731 | 58 | 63 | 2.0 | 6.0 | 0.00 | 0.00 | 0.00 | 62 | 1026.6 |
| 20260508215531 | 58 | 65 | 3.0 | 6.0 | 0.00 | 0.00 | 0.00 | 61 | 1026.6 |
| 20260508215331 | 58 | 44 | 3.0 | 7.0 | 0.00 | 0.00 | 0.00 | 61 | 1026.6 |
| 20260508215131 | 58 | 62 | 3.0 | 7.0 | 0.00 | 0.00 | 0.00 | 62 | 1026.6 |
| 20260508214931 | 58 | 89 | 4.0 | 7.0 | 0.00 | 0.00 | 0.00 | 61 | 1026.6 |
| 20260508214731 | 58 | 65 | 3.0 | 7.0 | 0.00 | 0.00 | 0.00 | 61 | 1026.6 |
| 20260508214532 | 58 | 39 | 4.0 | 7.0 | 0.00 | 0.00 | 0.00 | 61 | 1026.6 |
| 20260508214331 | 58 | 56 | 4.0 | 7.0 | 0.00 | 0.00 | 0.00 | 61 | 1026.6 |
| 20260508214131 | 58 | 32 | 3.0 | 10.0 | 0.00 | 0.00 | 0.00 | 61 | 1026.6 |
| 20260508213931 | 58 | 38 | 4.0 | 10.0 | 0.00 | 0.00 | 0.00 | 61 | 1026.5 |
| 20260508213730 | 58 | 56 | 5.0 | 10.0 | 0.00 | 0.00 | 0.00 | 61 | 1026.6 |
| 20260508213530 | 58 | 58 | 3.0 | 10.0 | 0.00 | 0.00 | 0.00 | 61 | 1026.6 |
| 20260508213331 | 58 | 39 | 5.0 | 10.0 | 0.00 | 0.00 | 0.00 | 61 | 1026.5 |
| 20260508213131 | 58 | 55 | 4.0 | 7.0 | 0.00 | 0.00 | 0.00 | 61 | 1026.5 |
| 20260508212930 | 58 | 68 | 3.0 | 9.0 | 0.00 | 0.00 | 0.00 | 61 | 1026.5 |
| 20260508212730 | 58 | 34 | 3.0 | 9.0 | 0.00 | 0.00 | 0.00 | 61 | 1026.5 |
| 20260508212531 | 58 | 49 | 3.0 | 9.0 | 0.00 | 0.00 | 0.00 | 60 | 1026.4 |
| 20260508212332 | 58 | 58 | 3.0 | 9.0 | 0.00 | 0.00 | 0.00 | 60 | 1026.4 |
| 20260508212130 | 59 | 45 | 4.0 | 10.0 | 0.00 | 0.00 | 0.00 | 60 | 1026.4 |
| 20260508211930 | 59 | 44 | 4.0 | 10.0 | 0.00 | 0.00 | 0.00 | 60 | 1026.3 |
| 20260508211730 | 59 | 10 | 3.0 | 13.0 | 0.00 | 0.00 | 0.00 | 60 | 1026.2 |
| 20260508211530 | 59 | 21 | 4.0 | 13.0 | 0.00 | 0.00 | 0.00 | 60 | 1026.2 |
| 20260508211330 | 59 | 92 | 4.0 | 13.0 | 0.00 | 0.00 | 0.00 | 60 | 1026.2 |
| 20260508211131 | 59 | 53 | 3.0 | 13.0 | 0.00 | 0.00 | 0.00 | 60 | 1026.1 |
| 20260508210930 | 59 | 59 | 4.0 | 13.0 | 0.00 | 0.00 | 0.00 | 60 | 1026.1 |
| 20260508210730 | 59 | 63 | 3.0 | 11.0 | 0.00 | 0.00 | 0.00 | 60 | 1026.1 |
| 20260508210530 | 59 | 75 | 4.0 | 11.0 | 0.00 | 0.00 | 0.00 | 60 | 1026.1 |
| 20260508210331 | 59 | 80 | 4.0 | 11.0 | 0.00 | 0.00 | 0.00 | 60 | 1026.0 |
| 20260508210130 | 59 | 65 | 4.0 | 11.0 | 0.00 | 0.00 | 0.00 | 60 | 1026.0 |
| 20260508205930 | 59 | 45 | 4.0 | 11.0 | 0.00 | 0.00 | 0.00 | 60 | 1026.0 |
| 20260508205729 | 59 | 56 | 4.0 | 9.0 | 0.00 | 0.00 | 0.00 | 60 | 1026.0 |
| 20260508205530 | 59 | 76 | 3.0 | 9.0 | 0.00 | 0.00 | 0.00 | 60 | 1026.0 |
| 20260508205329 | 59 | 46 | 3.0 | 9.0 | 0.00 | 0.00 | 0.00 | 60 | 1026.0 |
| 20260508205129 | 59 | 41 | 3.0 | 9.0 | 0.00 | 0.00 | 0.00 | 60 | 1026.0 |
| 20260508204931 | 59 | 51 | 3.0 | 5.0 | 0.00 | 0.00 | 0.00 | 59 | 1026.0 |
| 20260508204730 | 59 | 73 | 3.0 | 5.0 | 0.00 | 0.00 | 0.00 | 59 | 1026.0 |
| 20260508204530 | 59 | 73 | 3.0 | 6.0 | 0.00 | 0.00 | 0.00 | 59 | 1026.0 |
| 20260508204329 | 59 | 66 | 2.0 | 6.0 | 0.00 | 0.00 | 0.00 | 59 | 1025.9 |
| 20260508204130 | 59 | 59 | 2.0 | 6.0 | 0.00 | 0.00 | 0.00 | 59 | 1025.9 |
| 20260508203929 | 59 | 61 | 2.0 | 7.0 | 0.00 | 0.00 | 0.00 | 59 | 1025.9 |
| 20260508203729 | 59 | 51 | 3.0 | 7.0 | 0.00 | 0.00 | 0.00 | 59 | 1025.8 |
| 20260508203530 | 59 | 84 | 4.0 | 9.0 | 0.00 | 0.00 | 0.00 | 59 | 1025.9 |
| 20260508203330 | 59 | 72 | 2.0 | 9.0 | 0.00 | 0.00 | 0.00 | 59 | 1025.8 |
| 20260508203129 | 59 | 76 | 3.0 | 9.0 | 0.00 | 0.00 | 0.00 | 59 | 1025.8 |
| 20260508202929 | 59 | 48 | 3.0 | 9.0 | 0.00 | 0.00 | 0.00 | 59 | 1025.7 |
| 20260508202729 | 60 | 45 | 4.0 | 9.0 | 0.00 | 0.00 | 0.00 | 58 | 1025.8 |
| 20260508202530 | 60 | 39 | 4.0 | 9.0 | 0.00 | 0.00 | 0.00 | 58 | 1025.7 |
| 20260508202329 | 60 | 68 | 4.0 | 9.0 | 0.00 | 0.00 | 0.00 | 58 | 1025.8 |
| 20260508202129 | 60 | 79 | 4.0 | 9.0 | 0.00 | 0.00 | 0.00 | 58 | 1025.7 |
| 20260508201929 | 60 | 79 | 4.0 | 5.0 | 0.00 | 0.00 | 0.00 | 58 | 1025.7 |
| 20260508201729 | 60 | 28 | 4.0 | 6.0 | 0.00 | 0.00 | 0.00 | 58 | 1025.7 |
| 20260508201504 | 60 | 28 | 4.0 | 7.0 | 0.00 | 0.00 | 0.00 | 58 | 1025.7 |
| 20260508201303 | 60 | 28 | 4.0 | 7.0 | 0.00 | 0.00 | 0.00 | 58 | 1025.6 |
| 20260508201104 | 60 | 28 | 4.0 | 7.0 | 0.00 | 0.00 | 0.00 | 58 | 1025.6 |
| 20260508200902 | 60 | 56 | 3.0 | 10.0 | 0.00 | 0.00 | 0.00 | 58 | 1025.6 |
| 20260508200702 | 60 | 38 | 4.0 | 10.0 | 0.00 | 0.00 | 0.00 | 58 | 1025.6 |
| 20260508200504 | 60 | 48 | 4.0 | 10.0 | 0.00 | 0.00 | 0.00 | 58 | 1025.5 |
| 20260508200302 | 60 | 52 | 4.0 | 10.0 | 0.00 | 0.00 | 0.00 | 57 | 1025.5 |
| 20260508200040 | 60 | 68 | 3.0 | 10.0 | 0.00 | 0.00 | 0.00 | 57 | 1025.5 |
| 20260508195827 | 60 | 97 | 5.0 | 7.0 | 0.00 | 0.00 | 0.00 | 57 | 1025.5 |
| 20260508195629 | 60 | 34 | 4.0 | 7.0 | 0.00 | 0.00 | 0.00 | 57 | 1025.5 |
| 20260508195428 | 60 | 62 | 4.0 | 7.0 | 0.00 | 0.00 | 0.00 | 57 | 1025.5 |
| 20260508195228 | 60 | 62 | 4.0 | 10.0 | 0.00 | 0.00 | 0.00 | 57 | 1025.5 |
| 20260508195028 | 60 | 61 | 4.0 | 10.0 | 0.00 | 0.00 | 0.00 | 57 | 1025.4 |
| 20260508194828 | 60 | 79 | 4.0 | 10.0 | 0.00 | 0.00 | 0.00 | 57 | 1025.4 |
| 20260508194627 | 60 | 61 | 4.0 | 11.0 | 0.00 | 0.00 | 0.00 | 57 | 1025.4 |
| 20260508194427 | 60 | 66 | 4.0 | 11.0 | 0.00 | 0.00 | 0.00 | 57 | 1025.4 |
| 20260508194229 | 60 | 52 | 3.0 | 11.0 | 0.00 | 0.00 | 0.00 | 56 | 1025.4 |
| 20260508194028 | 60 | 77 | 4.0 | 14.0 | 0.00 | 0.00 | 0.00 | 56 | 1025.4 |
| 20260508193827 | 60 | 49 | 5.0 | 14.0 | 0.00 | 0.00 | 0.00 | 56 | 1025.3 |
| 20260508193628 | 60 | 55 | 5.0 | 14.0 | 0.00 | 0.00 | 0.00 | 56 | 1025.3 |
| 20260508193424 | 61 | 65 | 4.0 | 14.0 | 0.00 | 0.00 | 0.00 | 56 | 1025.3 |
| 20260508193224 | 61 | 49 | 5.0 | 14.0 | 0.00 | 0.00 | 0.00 | 56 | 1025.3 |
| 20260508193024 | 60 | 76 | 5.0 | 9.0 | 0.00 | 0.00 | 0.00 | 56 | 1025.3 |
| 20260508192824 | 61 | 63 | 4.0 | 9.0 | 0.00 | 0.00 | 0.00 | 56 | 1025.2 |
| 20260508192626 | 61 | 44 | 5.0 | 9.0 | 0.00 | 0.00 | 0.00 | 56 | 1025.2 |
| 20260508192425 | 61 | 46 | 5.0 | 9.0 | 0.00 | 0.00 | 0.00 | 56 | 1025.2 |
| 20260508192224 | 61 | 52 | 4.0 | 9.0 | 0.00 | 0.00 | 0.00 | 56 | 1025.2 |
| 20260508192023 | 61 | 56 | 4.0 | 9.0 | 0.00 | 0.00 | 0.00 | 56 | 1025.2 |
| 20260508191823 | 61 | 72 | 5.0 | 9.0 | 0.00 | 0.00 | 0.00 | 56 | 1025.2 |
| 20260508191622 | 61 | 63 | 5.0 | 7.0 | 0.00 | 0.00 | 0.00 | 56 | 1025.2 |
| 20260508191419 | 61 | 42 | 4.0 | 7.0 | 0.00 | 0.00 | 0.00 | 56 | 1025.3 |
| 20260508191218 | 61 | 87 | 4.0 | 7.0 | 0.00 | 0.00 | 0.00 | 56 | 1025.3 |
| 20260508191018 | 61 | 48 | 5.0 | 7.0 | 0.00 | 0.00 | 0.00 | 56 | 1025.2 |
| 20260508190818 | 61 | 52 | 3.0 | 7.0 | 0.00 | 0.00 | 0.00 | 56 | 1025.2 |
| 20260508190617 | 61 | 48 | 5.0 | 7.0 | 0.00 | 0.00 | 0.00 | 56 | 1025.2 |
| 20260508190416 | 61 | 62 | 4.0 | 7.0 | 0.00 | 0.00 | 0.00 | 56 | 1025.1 |
| 20260508190216 | 61 | 111 | 3.0 | 7.0 | 0.00 | 0.00 | 0.00 | 56 | 1025.3 |
| 20260508190017 | 61 | 44 | 4.0 | 7.0 | 0.00 | 0.00 | 0.00 | 56 | 1025.2 |
| 20260508185806 | 61 | 63 | 4.0 | 7.0 | 0.00 | 0.00 | 0.00 | 56 | 1025.3 |
| 20260508185609 | 61 | 62 | 4.0 | 7.0 | 0.00 | 0.00 | 0.00 | 56 | 1025.3 |
| 20260508185406 | 61 | 42 | 5.0 | 7.0 | 0.00 | 0.00 | 0.00 | 56 | 1025.3 |
| 20260508185205 | 61 | 72 | 3.0 | 9.0 | 0.00 | 0.00 | 0.00 | 56 | 1025.3 |
| 20260508185005 | 61 | 84 | 4.0 | 9.0 | 0.00 | 0.00 | 0.00 | 56 | 1025.4 |
| 20260508184805 | 61 | 84 | 4.0 | 9.0 | 0.00 | 0.00 | 0.00 | 56 | 1025.4 |
| 20260508184606 | 61 | 89 | 4.0 | 9.0 | 0.00 | 0.00 | 0.00 | 56 | 1025.3 |
| 20260508184401 | 61 | 53 | 4.0 | 9.0 | 0.00 | 0.00 | 0.00 | 56 | 1025.4 |
| 20260508184202 | 61 | 37 | 3.0 | 9.0 | 0.00 | 0.00 | 0.00 | 56 | 1025.4 |
| 20260508184003 | 61 | 35 | 3.0 | 9.0 | 0.00 | 0.00 | 0.00 | 56 | 1025.4 |
| 20260508183803 | 61 | 35 | 5.0 | 9.0 | 0.00 | 0.00 | 0.00 | 56 | 1025.4 |
| 20260508183602 | 61 | 48 | 5.0 | 9.0 | 0.00 | 0.00 | 0.00 | 55 | 1025.5 |
| 20260508183402 | 61 | 70 | 3.0 | 7.0 | 0.00 | 0.00 | 0.00 | 55 | 1025.4 |
| 20260508183202 | 61 | 75 | 4.0 | 9.0 | 0.00 | 0.00 | 0.00 | 55 | 1025.4 |
| 20260508183002 | 61 | 65 | 4.0 | 9.0 | 0.00 | 0.00 | 0.00 | 55 | 1025.5 |
| 20260508182802 | 61 | 32 | 4.0 | 9.0 | 0.00 | 0.00 | 0.00 | 55 | 1025.5 |
| 20260508182539 | 61 | 56 | 3.0 | 9.0 | 0.00 | 0.00 | 0.00 | 55 | 1025.6 |
| 20260508182339 | 61 | 32 | 4.0 | 9.0 | 0.00 | 0.00 | 0.00 | 55 | 1025.5 |
| 20260508182138 | 61 | 42 | 4.0 | 7.0 | 0.00 | 0.00 | 0.00 | 55 | 1025.5 |
| 20260508181938 | 61 | 42 | 4.0 | 9.0 | 0.00 | 0.00 | 0.00 | 55 | 1025.6 |
| 20260508181738 | 61 | 58 | 4.0 | 9.0 | 0.00 | 0.00 | 0.00 | 55 | 1025.5 |
| 20260508181534 | 61 | 55 | 4.0 | 9.0 | 0.00 | 0.00 | 0.00 | 55 | 1025.5 |
| 20260508181334 | 61 | 62 | 4.0 | 9.0 | 0.00 | 0.00 | 0.00 | 55 | 1025.5 |
| 20260508181134 | 62 | 62 | 4.0 | 9.0 | 0.00 | 0.00 | 0.00 | 55 | 1025.4 |
| 20260508180933 | 62 | 68 | 4.0 | 9.0 | 0.00 | 0.00 | 0.00 | 55 | 1025.5 |
| 20260508180731 | 62 | 51 | 4.0 | 9.0 | 0.00 | 0.00 | 0.00 | 55 | 1025.6 |
| 20260508180534 | 62 | 38 | 3.0 | 11.0 | 0.00 | 0.00 | 0.00 | 55 | 1025.4 |
| 20260508180331 | 62 | 61 | 4.0 | 11.0 | 0.00 | 0.00 | 0.00 | 55 | 1025.4 |
| 20260508180131 | 62 | 55 | 3.0 | 11.0 | 0.00 | 0.00 | 0.00 | 55 | 1025.4 |
| 20260508175931 | 62 | 84 | 4.0 | 11.0 | 0.00 | 0.00 | 0.00 | 55 | 1025.4 |
| 20260508175730 | 62 | 61 | 5.0 | 11.0 | 0.00 | 0.00 | 0.00 | 55 | 1025.4 |
| 20260508175531 | 62 | 73 | 4.0 | 9.0 | 0.00 | 0.00 | 0.00 | 54 | 1025.4 |
| 20260508175331 | 62 | 66 | 3.0 | 9.0 | 0.00 | 0.00 | 0.00 | 54 | 1025.5 |
| 20260508175132 | 62 | 70 | 5.0 | 9.0 | 0.00 | 0.00 | 0.00 | 54 | 1025.5 |
| 20260508174931 | 62 | 58 | 3.0 | 9.0 | 0.00 | 0.00 | 0.00 | 54 | 1025.5 |
| 20260508174732 | 62 | 31 | 4.0 | 9.0 | 0.00 | 0.00 | 0.00 | 54 | 1025.6 |
| 20260508174531 | 62 | 66 | 3.0 | 9.0 | 0.00 | 0.00 | 0.00 | 54 | 1025.5 |
| 20260508174332 | 62 | 76 | 4.0 | 9.0 | 0.00 | 0.00 | 0.00 | 54 | 1025.5 |
| 20260508174132 | 62 | 51 | 4.0 | 9.0 | 0.00 | 0.00 | 0.00 | 54 | 1025.4 |
| 20260508173931 | 62 | 83 | 3.0 | 6.0 | 0.00 | 0.00 | 0.00 | 54 | 1025.4 |
| 20260508173730 | 62 | 72 | 3.0 | 7.0 | 0.00 | 0.00 | 0.00 | 53 | 1025.4 |
| 20260508173530 | 62 | 39 | 3.0 | 7.0 | 0.00 | 0.00 | 0.00 | 53 | 1025.4 |
| 20260508173327 | 62 | 61 | 3.0 | 9.0 | 0.00 | 0.00 | 0.00 | 53 | 1025.4 |
| 20260508173127 | 62 | 68 | 3.0 | 9.0 | 0.00 | 0.00 | 0.00 | 53 | 1025.3 |
| 20260508172926 | 62 | 96 | 4.0 | 9.0 | 0.00 | 0.00 | 0.00 | 53 | 1025.2 |
| 20260508172726 | 62 | 73 | 4.0 | 10.0 | 0.00 | 0.00 | 0.00 | 53 | 1025.2 |
| 20260508172526 | 62 | 73 | 3.0 | 10.0 | 0.00 | 0.00 | 0.00 | 53 | 1025.3 |
| 20260508172325 | 62 | 72 | 3.0 | 11.0 | 0.00 | 0.00 | 0.00 | 53 | 1025.2 |
| 20260508172125 | 63 | 52 | 3.0 | 11.0 | 0.00 | 0.00 | 0.00 | 53 | 1025.2 |
| 20260508171925 | 63 | 68 | 5.0 | 11.0 | 0.00 | 0.00 | 0.00 | 53 | 1025.3 |
| 20260508171726 | 63 | 69 | 4.0 | 11.0 | 0.00 | 0.00 | 0.00 | 53 | 1025.2 |
| 20260508171524 | 63 | 61 | 5.0 | 11.0 | 0.00 | 0.00 | 0.00 | 53 | 1025.3 |
| 20260508171324 | 63 | 56 | 3.0 | 9.0 | 0.00 | 0.00 | 0.00 | 53 | 1025.3 |
| 20260508171124 | 63 | 68 | 4.0 | 9.0 | 0.00 | 0.00 | 0.00 | 53 | 1025.3 |
| 20260508170924 | 63 | 61 | 5.0 | 9.0 | 0.00 | 0.00 | 0.00 | 53 | 1025.3 |
| 20260508170724 | 62 | 59 | 4.0 | 9.0 | 0.00 | 0.00 | 0.00 | 53 | 1025.3 |
| 20260508170540 | 62 | 55 | 4.0 | 9.0 | 0.00 | 0.00 | 0.00 | 53 | 1025.3 |
| 20260508170324 | 63 | 46 | 3.0 | 9.0 | 0.00 | 0.00 | 0.00 | 53 | 1025.3 |
| 20260508170123 | 63 | 34 | 3.0 | 9.0 | 0.00 | 0.00 | 0.00 | 53 | 1025.4 |
| 20260508165924 | 63 | 75 | 5.0 | 9.0 | 0.00 | 0.00 | 0.00 | 53 | 1025.3 |
| 20260508165724 | 63 | 70 | 3.0 | 9.0 | 0.00 | 0.00 | 0.00 | 53 | 1025.4 |
| 20260508165524 | 63 | 58 | 3.0 | 9.0 | 0.00 | 0.00 | 0.00 | 53 | 1025.4 |
| 20260508165324 | 63 | 63 | 3.0 | 9.0 | 0.00 | 0.00 | 0.00 | 53 | 1025.4 |
| 20260508165124 | 63 | 46 | 3.0 | 9.0 | 0.00 | 0.00 | 0.00 | 53 | 1025.5 |
| 20260508164925 | 63 | 51 | 3.0 | 7.0 | 0.00 | 0.00 | 0.00 | 53 | 1025.5 |
| 20260508164724 | 63 | 69 | 3.0 | 7.0 | 0.00 | 0.00 | 0.00 | 53 | 1025.5 |
| 20260508164524 | 63 | 73 | 3.0 | 7.0 | 0.00 | 0.00 | 0.00 | 53 | 1025.5 |
| 20260508164324 | 63 | 65 | 4.0 | 7.0 | 0.00 | 0.00 | 0.00 | 53 | 1025.5 |
| 20260508164124 | 63 | 65 | 3.0 | 5.0 | 0.00 | 0.00 | 0.00 | 53 | 1025.5 |
| 20260508163924 | 63 | 79 | 3.0 | 5.0 | 0.00 | 0.00 | 0.00 | 52 | 1025.6 |
| 20260508163724 | 63 | 53 | 3.0 | 5.0 | 0.00 | 0.00 | 0.00 | 52 | 1025.5 |
| 20260508163525 | 63 | 55 | 3.0 | 5.0 | 0.00 | 0.00 | 0.00 | 52 | 1025.5 |
| 20260508163323 | 63 | 55 | 2.0 | 6.0 | 0.00 | 0.00 | 0.00 | 52 | 1025.5 |
| 20260508163123 | 63 | 55 | 3.0 | 6.0 | 0.00 | 0.00 | 0.00 | 52 | 1025.6 |
| 20260508162923 | 63 | 59 | 3.0 | 6.0 | 0.00 | 0.00 | 0.00 | 52 | 1025.5 |
| 20260508162723 | 63 | 35 | 2.0 | 6.0 | 0.00 | 0.00 | 0.00 | 52 | 1025.5 |
| 20260508162524 | 63 | 35 | 2.0 | 6.0 | 0.00 | 0.00 | 0.00 | 52 | 1025.6 |
| 20260508162323 | 63 | 7 | 3.0 | 5.0 | 0.00 | 0.00 | 0.00 | 52 | 1025.5 |
| 20260508162124 | 63 | 56 | 2.0 | 4.0 | 0.00 | 0.00 | 0.00 | 52 | 1025.6 |
| 20260508161923 | 63 | 83 | 2.0 | 5.0 | 0.00 | 0.00 | 0.00 | 51 | 1025.5 |
| 20260508161724 | 63 | 62 | 2.0 | 5.0 | 0.00 | 0.00 | 0.00 | 51 | 1025.5 |
| 20260508161522 | 63 | 49 | 2.0 | 5.0 | 0.00 | 0.00 | 0.00 | 51 | 1025.5 |
| 20260508161323 | 63 | 48 | 2.0 | 6.0 | 0.00 | 0.00 | 0.00 | 51 | 1025.5 |
| 20260508161123 | 63 | 42 | 2.0 | 6.0 | 0.00 | 0.00 | 0.00 | 51 | 1025.4 |
| 20260508160923 | 63 | 75 | 3.0 | 6.0 | 0.00 | 0.00 | 0.00 | 51 | 1025.4 |
| 20260508160723 | 63 | 97 | 3.0 | 6.0 | 0.00 | 0.00 | 0.00 | 51 | 1025.4 |
| 20260508160522 | 63 | 53 | 3.0 | 5.0 | 0.00 | 0.00 | 0.00 | 51 | 1025.3 |
| 20260508155931 | 63 | 68 | 2.0 | 6.0 | 0.00 | 0.00 | 0.00 | 50 | 1025.4 |
| 20260508155731 | 63 | 70 | 2.0 | 6.0 | 0.00 | 0.00 | 0.00 | 50 | 1025.3 |
| 20260508155531 | 63 | 66 | 2.0 | 7.0 | 0.00 | 0.00 | 0.00 | 50 | 1025.3 |
| 20260508155332 | 63 | 76 | 3.0 | 10.0 | 0.00 | 0.00 | 0.00 | 50 | 1025.3 |
| 20260508155131 | 63 | 56 | 2.0 | 10.0 | 0.00 | 0.00 | 0.00 | 50 | 1025.3 |
| 20260508154931 | 64 | 73 | 2.0 | 10.0 | 0.00 | 0.00 | 0.00 | 50 | 1025.3 |
| 20260508154731 | 64 | 69 | 3.0 | 10.0 | 0.00 | 0.00 | 0.00 | 50 | 1025.3 |
| 20260508154531 | 64 | 70 | 3.0 | 10.0 | 0.00 | 0.00 | 0.00 | 50 | 1025.3 |
| 20260508154330 | 64 | 73 | 2.0 | 5.0 | 0.00 | 0.00 | 0.00 | 50 | 1025.3 |
| 20260508154129 | 64 | 73 | 2.0 | 5.0 | 0.00 | 0.00 | 0.00 | 49 | 1025.3 |
| 20260508153929 | 64 | 65 | 2.0 | 5.0 | 0.00 | 0.00 | 0.00 | 49 | 1025.3 |
| 20260508153729 | 64 | 69 | 3.0 | 4.0 | 0.00 | 0.00 | 0.00 | 49 | 1025.2 |
| 20260508153528 | 64 | 77 | 2.0 | 4.0 | 0.00 | 0.00 | 0.00 | 49 | 1025.3 |
| 20260508153327 | 64 | 77 | 2.0 | 5.0 | 0.00 | 0.00 | 0.00 | 49 | 1025.3 |
| 20260508153159 | 64 | 65 | 2.0 | 5.0 | 0.00 | 0.00 | 0.00 | 49 | 1025.4 |
| 20260508152927 | 64 | 76 | 2.0 | 5.0 | 0.00 | 0.00 | 0.00 | 49 | 1025.4 |
| 20260508152708 | 64 | 99 | 2.0 | 5.0 | 0.00 | 0.00 | 0.00 | 48 | 1025.4 |
| 20260508152509 | 64 | 99 | 2.0 | 5.0 | 0.00 | 0.00 | 0.00 | 48 | 1025.4 |
| 20260508152308 | 64 | 76 | 3.0 | 5.0 | 0.00 | 0.00 | 0.00 | 48 | 1025.4 |
| 20260508152108 | 64 | 52 | 3.0 | 5.0 | 0.00 | 0.00 | 0.00 | 48 | 1025.4 |
| 20260508151907 | 64 | 52 | 3.0 | 5.0 | 0.00 | 0.00 | 0.00 | 48 | 1025.5 |
| 20260508151707 | 64 | 59 | 3.0 | 7.0 | 0.00 | 0.00 | 0.00 | 48 | 1025.5 |
| 20260508151506 | 64 | 77 | 3.0 | 7.0 | 0.00 | 0.00 | 0.00 | 48 | 1025.4 |
| 20260508151305 | 64 | 68 | 3.0 | 7.0 | 0.00 | 0.00 | 0.00 | 48 | 1025.4 |
| 20260508151105 | 64 | 93 | 3.0 | 7.0 | 0.00 | 0.00 | 0.00 | 48 | 1025.4 |
| 20260508150905 | 64 | 97 | 3.0 | 7.0 | 0.00 | 0.00 | 0.00 | 48 | 1025.5 |
| 20260508150702 | 64 | 65 | 3.0 | 6.0 | 0.00 | 0.00 | 0.00 | 48 | 1025.4 |
| 20260508150503 | 64 | 68 | 2.0 | 5.0 | 0.00 | 0.00 | 0.00 | 48 | 1025.5 |
| 20260508150302 | 64 | 66 | 3.0 | 6.0 | 0.00 | 0.00 | 0.00 | 48 | 1025.5 |
| 20260508145901 | 64 | 62 | 3.0 | 6.0 | 0.00 | 0.00 | 0.00 | 48 | 1025.4 |
| 20260508145702 | 64 | 69 | 3.0 | 6.0 | 0.00 | 0.00 | 0.00 | 48 | 1025.5 |
| 20260508145503 | 64 | 72 | 3.0 | 6.0 | 0.00 | 0.00 | 0.00 | 48 | 1025.4 |
| 20260508145306 | 64 | 77 | 4.0 | 5.0 | 0.00 | 0.00 | 0.00 | 48 | 1025.5 |
| 20260508145103 | 64 | 62 | 2.0 | 5.0 | 0.00 | 0.00 | 0.00 | 48 | 1025.6 |
| 20260508144903 | 64 | 56 | 3.0 | 5.0 | 0.00 | 0.00 | 0.00 | 48 | 1025.5 |
| 20260508144700 | 64 | 61 | 3.0 | 5.0 | 0.00 | 0.00 | 0.00 | 48 | 1025.5 |
| 20260508144500 | 64 | 69 | 2.0 | 5.0 | 0.00 | 0.00 | 0.00 | 48 | 1025.5 |
| 20260508144300 | 64 | 76 | 2.0 | 5.0 | 0.00 | 0.00 | 0.00 | 48 | 1025.6 |
| 20260508144101 | 64 | 75 | 3.0 | 5.0 | 0.00 | 0.00 | 0.00 | 48 | 1025.5 |
| 20260508143900 | 64 | 51 | 3.0 | 5.0 | 0.00 | 0.00 | 0.00 | 48 | 1025.6 |
| 20260508143701 | 64 | 66 | 3.0 | 5.0 | 0.00 | 0.00 | 0.00 | 48 | 1025.6 |
| 20260508143501 | 64 | 76 | 3.0 | 5.0 | 0.00 | 0.00 | 0.00 | 48 | 1025.7 |
| 20260508143300 | 64 | 69 | 2.0 | 5.0 | 0.00 | 0.00 | 0.00 | 49 | 1025.7 |
| 20260508143101 | 64 | 69 | 2.0 | 5.0 | 0.00 | 0.00 | 0.00 | 49 | 1025.6 |
| 20260508142900 | 64 | 20 | 2.0 | 5.0 | 0.00 | 0.00 | 0.00 | 49 | 1025.6 |
| 20260508142700 | 64 | 20 | 3.0 | 5.0 | 0.00 | 0.00 | 0.00 | 49 | 1025.7 |
| 20260508142459 | 64 | 29 | 3.0 | 6.0 | 0.00 | 0.00 | 0.00 | 49 | 1025.7 |
| 20260508142302 | 64 | 75 | 3.0 | 6.0 | 0.00 | 0.00 | 0.00 | 49 | 1025.6 |
| 20260508142100 | 64 | 52 | 3.0 | 6.0 | 0.00 | 0.00 | 0.00 | 49 | 1025.7 |
| 20260508141900 | 64 | 52 | 3.0 | 6.0 | 0.00 | 0.00 | 0.00 | 50 | 1025.7 |
| 20260508141700 | 64 | 37 | 3.0 | 6.0 | 0.00 | 0.00 | 0.00 | 50 | 1025.7 |
| 20260508141456 | 64 | 48 | 2.0 | 6.0 | 0.00 | 0.00 | 0.00 | 50 | 1025.7 |
| 20260508141256 | 64 | 49 | 3.0 | 6.0 | 0.00 | 0.00 | 0.00 | 50 | 1025.7 |
| 20260508141056 | 64 | 46 | 2.0 | 6.0 | 0.00 | 0.00 | 0.00 | 50 | 1025.8 |
| 20260508140855 | 64 | 38 | 3.0 | 6.0 | 0.00 | 0.00 | 0.00 | 50 | 1025.7 |
| 20260508140652 | 64 | 80 | 3.0 | 6.0 | 0.00 | 0.00 | 0.00 | 51 | 1025.7 |
| 20260508140450 | 64 | 58 | 3.0 | 6.0 | 0.00 | 0.00 | 0.00 | 51 | 1025.7 |
| 20260508140250 | 64 | 53 | 2.0 | 6.0 | 0.00 | 0.00 | 0.00 | 51 | 1025.7 |
| 20260508140050 | 64 | 58 | 3.0 | 7.0 | 0.00 | 0.00 | 0.00 | 51 | 1025.7 |
| 20260508135849 | 64 | 63 | 3.0 | 7.0 | 0.00 | 0.00 | 0.00 | 51 | 1025.6 |
| 20260508135650 | 64 | 52 | 4.0 | 7.0 | 0.00 | 0.00 | 0.00 | 51 | 1025.6 |
| 20260508135449 | 64 | 68 | 3.0 | 7.0 | 0.00 | 0.00 | 0.00 | 51 | 1025.6 |
| 20260508135248 | 64 | 63 | 4.0 | 7.0 | 0.00 | 0.00 | 0.00 | 52 | 1025.7 |
| 20260508135048 | 64 | 53 | 3.0 | 5.0 | 0.00 | 0.00 | 0.00 | 52 | 1025.6 |
| 20260508134848 | 64 | 63 | 3.0 | 5.0 | 0.00 | 0.00 | 0.00 | 52 | 1025.6 |
| 20260508134646 | 64 | 65 | 3.0 | 5.0 | 0.00 | 0.00 | 0.00 | 53 | 1025.6 |
| 20260508134446 | 64 | 62 | 3.0 | 5.0 | 0.00 | 0.00 | 0.00 | 53 | 1025.6 |
| 20260508134247 | 64 | 51 | 4.0 | 5.0 | 0.00 | 0.00 | 0.00 | 53 | 1025.6 |
| 20260508134046 | 64 | 76 | 2.0 | 5.0 | 0.00 | 0.00 | 0.00 | 54 | 1025.6 |
| 20260508133845 | 64 | 84 | 3.0 | 5.0 | 0.00 | 0.00 | 0.00 | 54 | 1025.6 |
| 20260508133644 | 64 | 69 | 2.0 | 5.0 | 0.00 | 0.00 | 0.00 | 54 | 1025.6 |
| 20260508133444 | 64 | 73 | 3.0 | 5.0 | 0.00 | 0.00 | 0.00 | 54 | 1025.6 |
| 20260508133245 | 64 | 72 | 2.0 | 5.0 | 0.00 | 0.00 | 0.00 | 54 | 1025.6 |
| 20260508133043 | 64 | 72 | 3.0 | 5.0 | 0.00 | 0.00 | 0.00 | 54 | 1025.6 |
| 20260508132840 | 63 | 70 | 2.0 | 5.0 | 0.00 | 0.00 | 0.00 | 55 | 1025.5 |
| 20260508132640 | 63 | 68 | 2.0 | 6.0 | 0.00 | 0.00 | 0.00 | 55 | 1025.6 |
| 20260508132439 | 63 | 68 | 1.0 | 6.0 | 0.00 | 0.00 | 0.00 | 55 | 1025.7 |
| 20260508132239 | 63 | 68 | 2.0 | 6.0 | 0.00 | 0.00 | 0.00 | 55 | 1025.7 |
| 20260508132038 | 63 | 63 | 3.0 | 6.0 | 0.00 | 0.00 | 0.00 | 56 | 1025.6 |
| 20260508131838 | 63 | 53 | 3.0 | 6.0 | 0.00 | 0.00 | 0.00 | 56 | 1025.6 |
| 20260508131637 | 63 | 61 | 2.0 | 4.0 | 0.00 | 0.00 | 0.00 | 56 | 1025.7 |
| 20260508131437 | 63 | 24 | 2.0 | 4.0 | 0.00 | 0.00 | 0.00 | 56 | 1025.6 |
| 20260508131237 | 63 | 24 | 2.0 | 4.0 | 0.00 | 0.00 | 0.00 | 56 | 1025.6 |
| 20260508131037 | 63 | 44 | 2.0 | 3.0 | 0.00 | 0.00 | 0.00 | 56 | 1025.7 |
| 20260508130836 | 63 | 38 | 1.0 | 5.0 | 0.00 | 0.00 | 0.00 | 56 | 1025.7 |
| 20260508130638 | 63 | 38 | 1.0 | 5.0 | 0.00 | 0.00 | 0.00 | 56 | 1025.6 |
| 20260508130435 | 63 | 38 | 2.0 | 5.0 | 0.00 | 0.00 | 0.00 | 56 | 1025.7 |
| 20260508130235 | 63 | 38 | 2.0 | 5.0 | 0.00 | 0.00 | 0.00 | 56 | 1025.6 |
| 20260508130033 | 63 | 38 | 3.0 | 5.0 | 0.00 | 0.00 | 0.00 | 56 | 1025.6 |
| 20260508125831 | 63 | 44 | 2.0 | 4.0 | 0.00 | 0.00 | 0.00 | 56 | 1025.6 |
| 20260508125631 | 63 | 93 | 2.0 | 4.0 | 0.00 | 0.00 | 0.00 | 56 | 1025.6 |
| 20260508125431 | 63 | 93 | 2.0 | 4.0 | 0.00 | 0.00 | 0.00 | 56 | 1025.6 |
| 20260508125230 | 64 | 94 | 1.0 | 4.0 | 0.00 | 0.00 | 0.00 | 56 | 1025.5 |
| 20260508125031 | 64 | 94 | 2.0 | 4.0 | 0.00 | 0.00 | 0.00 | 56 | 1025.5 |
| 20260508124831 | 64 | 94 | 2.0 | 4.0 | 0.00 | 0.00 | 0.00 | 56 | 1025.5 |
| 20260508124631 | 64 | 99 | 1.0 | 3.0 | 0.00 | 0.00 | 0.00 | 56 | 1025.6 |
| 20260508124432 | 64 | 99 | 2.0 | 3.0 | 0.00 | 0.00 | 0.00 | 56 | 1025.5 |
| 20260508124231 | 64 | 99 | 1.0 | 3.0 | 0.00 | 0.00 | 0.00 | 56 | 1025.5 |
| 20260508124030 | 64 | 99 | 2.0 | 3.0 | 0.00 | 0.00 | 0.00 | 56 | 1025.5 |
| 20260508123830 | 64 | 84 | 1.0 | 4.0 | 0.00 | 0.00 | 0.00 | 56 | 1025.5 |
| 20260508123631 | 64 | 65 | 0.0 | 4.0 | 0.00 | 0.00 | 0.00 | 56 | 1025.5 |
| 20260508123431 | 64 | 65 | 1.0 | 4.0 | 0.00 | 0.00 | 0.00 | 55 | 1025.5 |
| 20260508123231 | 64 | 65 | 2.0 | 4.0 | 0.00 | 0.00 | 0.00 | 55 | 1025.5 |
| 20260508123031 | 64 | 65 | 2.0 | 4.0 | 0.00 | 0.00 | 0.00 | 55 | 1025.5 |
| 20260508122831 | 64 | 38 | 2.0 | 4.0 | 0.00 | 0.00 | 0.00 | 55 | 1025.5 |
| 20260508122632 | 64 | 37 | 2.0 | 4.0 | 0.00 | 0.00 | 0.00 | 55 | 1025.6 |
| 20260508122431 | 64 | 70 | 2.0 | 4.0 | 0.00 | 0.00 | 0.00 | 55 | 1025.6 |
| 20260508122231 | 64 | 75 | 2.0 | 4.0 | 0.00 | 0.00 | 0.00 | 55 | 1025.5 |
| 20260508122031 | 64 | 59 | 2.0 | 3.0 | 0.00 | 0.00 | 0.00 | 55 | 1025.6 |
| 20260508121830 | 64 | 59 | 2.0 | 5.0 | 0.00 | 0.00 | 0.00 | 55 | 1025.5 |
| 20260508121631 | 64 | 53 | 1.0 | 5.0 | 0.00 | 0.00 | 0.00 | 55 | 1025.6 |
| 20260508121431 | 64 | 52 | 1.0 | 5.0 | 0.00 | 0.00 | 0.00 | 55 | 1025.5 |
| 20260508121231 | 64 | 83 | 2.0 | 5.0 | 0.00 | 0.00 | 0.00 | 55 | 1025.5 |
| 20260508121031 | 64 | 83 | 2.0 | 5.0 | 0.00 | 0.00 | 0.00 | 55 | 1025.5 |
| 20260508120832 | 64 | 56 | 2.0 | 6.0 | 0.00 | 0.00 | 0.00 | 55 | 1025.5 |
| 20260508120631 | 64 | 51 | 2.0 | 6.0 | 0.00 | 0.00 | 0.00 | 55 | 1025.4 |
| 20260508120431 | 64 | 51 | 2.0 | 6.0 | 0.00 | 0.00 | 0.00 | 55 | 1025.5 |
| 20260508120231 | 64 | 76 | 2.0 | 6.0 | 0.00 | 0.00 | 0.00 | 55 | 1025.4 |
| 20260508120032 | 64 | 56 | 2.0 | 6.0 | 0.00 | 0.00 | 0.00 | 55 | 1025.5 |
| 20260508115831 | 64 | 68 | 1.0 | 4.0 | 0.00 | 0.00 | 0.00 | 55 | 1025.5 |
| 20260508115631 | 64 | 68 | 1.0 | 4.0 | 0.00 | 0.00 | 0.00 | 55 | 1025.5 |
| 20260508115431 | 64 | 65 | 2.0 | 4.0 | 0.00 | 0.00 | 0.00 | 55 | 1025.5 |
| 20260508115231 | 64 | 62 | 2.0 | 4.0 | 0.00 | 0.00 | 0.00 | 55 | 1025.4 |
| 20260508115031 | 64 | 65 | 2.0 | 4.0 | 0.00 | 0.00 | 0.00 | 55 | 1025.4 |
| 20260508114831 | 64 | 68 | 2.0 | 4.0 | 0.00 | 0.00 | 0.00 | 55 | 1025.3 |
| 20260508114613 | 64 | 63 | 2.0 | 4.0 | 0.00 | 0.00 | 0.00 | 55 | 1025.4 |
| 20260508114412 | 64 | 49 | 2.0 | 4.0 | 0.00 | 0.00 | 0.00 | 55 | 1025.3 |
| 20260508114211 | 65 | 29 | 1.0 | 4.0 | 0.00 | 0.00 | 0.00 | 55 | 1025.4 |
| 20260508114011 | 65 | 29 | 2.0 | 4.0 | 0.00 | 0.00 | 0.00 | 55 | 1025.3 |
| 20260508113810 | 65 | 29 | 2.0 | 4.0 | 0.00 | 0.00 | 0.00 | 55 | 1025.3 |
| 20260508113610 | 65 | 25 | 2.0 | 4.0 | 0.00 | 0.00 | 0.00 | 55 | 1025.4 |
| 20260508113407 | 65 | 14 | 1.0 | 4.0 | 0.00 | 0.00 | 0.00 | 55 | 1025.3 |
| 20260508113206 | 65 | 6 | 2.0 | 3.0 | 0.00 | 0.00 | 0.00 | 55 | 1025.3 |
| 20260508113006 | 65 | 6 | 2.0 | 5.0 | 0.00 | 0.00 | 0.00 | 55 | 1025.4 |
| 20260508112805 | 65 | 6 | 2.0 | 5.0 | 0.00 | 0.00 | 0.00 | 55 | 1025.4 |
| 20260508112605 | 65 | 6 | 2.0 | 5.0 | 0.00 | 0.00 | 0.00 | 55 | 1025.4 |
| 20260508112403 | 65 | 4 | 2.0 | 5.0 | 0.00 | 0.00 | 0.00 | 55 | 1025.4 |
| 20260508112202 | 65 | 4 | 2.0 | 5.0 | 0.00 | 0.00 | 0.00 | 55 | 1025.5 |
| 20260508112002 | 65 | 72 | 1.0 | 3.0 | 0.00 | 0.00 | 0.00 | 55 | 1025.5 |
| 20260508111802 | 65 | 72 | 1.0 | 2.0 | 0.00 | 0.00 | 0.00 | 55 | 1025.4 |
| 20260508111602 | 65 | 72 | 1.0 | 2.0 | 0.00 | 0.00 | 0.00 | 54 | 1025.5 |
| 20260508111402 | 65 | 72 | 1.0 | 2.0 | 0.00 | 0.00 | 0.00 | 54 | 1025.5 |
| 20260508111202 | 65 | 72 | 0.0 | 2.0 | 0.00 | 0.00 | 0.00 | 54 | 1025.4 |
| 20260508111004 | 65 | 72 | 1.0 | 3.0 | 0.00 | 0.00 | 0.00 | 54 | 1025.5 |
| 20260508110801 | 65 | 72 | 1.0 | 3.0 | 0.00 | 0.00 | 0.00 | 54 | 1025.4 |
| 20260508110600 | 65 | 72 | 1.0 | 3.0 | 0.00 | 0.00 | 0.00 | 54 | 1025.5 |
| 20260508110400 | 65 | 70 | 1.0 | 3.0 | 0.00 | 0.00 | 0.00 | 54 | 1025.5 |
| 20260508110159 | 65 | 70 | 2.0 | 3.0 | 0.00 | 0.00 | 0.00 | 54 | 1025.4 |
| 20260508105959 | 66 | 72 | 1.0 | 3.0 | 0.00 | 0.00 | 0.00 | 53 | 1025.4 |
| 20260508105758 | 66 | 72 | 1.0 | 3.0 | 0.00 | 0.00 | 0.00 | 53 | 1025.5 |
| 20260508105556 | 66 | 72 | 2.0 | 3.0 | 0.00 | 0.00 | 0.00 | 53 | 1025.4 |
| 20260508105356 | 66 | 75 | 1.0 | 3.0 | 0.00 | 0.00 | 0.00 | 53 | 1025.5 |
| 20260508105155 | 66 | 75 | 2.0 | 3.0 | 0.00 | 0.00 | 0.00 | 53 | 1025.5 |
| 20260508104955 | 66 | 75 | 2.0 | 3.0 | 0.00 | 0.00 | 0.00 | 53 | 1025.5 |
| 20260508104755 | 66 | 75 | 1.0 | 3.0 | 0.00 | 0.00 | 0.00 | 53 | 1025.6 |
| 20260508104555 | 66 | 72 | 1.0 | 3.0 | 0.00 | 0.00 | 0.00 | 52 | 1025.5 |
| 20260508104355 | 66 | 66 | 0.0 | 2.0 | 0.00 | 0.00 | 0.00 | 52 | 1025.5 |
| 20260508104155 | 67 | 66 | 0.0 | 4.0 | 0.00 | 0.00 | 0.00 | 52 | 1025.5 |
| 20260508103955 | 67 | 66 | 1.0 | 4.0 | 0.00 | 0.00 | 0.00 | 52 | 1025.5 |
| 20260508103754 | 67 | 66 | 1.0 | 4.0 | 0.00 | 0.00 | 0.00 | 52 | 1025.4 |
| 20260508103554 | 67 | 66 | 1.0 | 4.0 | 0.00 | 0.00 | 0.00 | 52 | 1025.4 |
| 20260508103354 | 67 | 66 | 1.0 | 4.0 | 0.00 | 0.00 | 0.00 | 52 | 1025.4 |
| 20260508103154 | 67 | 90 | 2.0 | 4.0 | 0.00 | 0.00 | 0.00 | 52 | 1025.4 |
| 20260508102954 | 67 | 63 | 2.0 | 4.0 | 0.00 | 0.00 | 0.00 | 52 | 1025.4 |
| 20260508102754 | 67 | 62 | 2.0 | 4.0 | 0.00 | 0.00 | 0.00 | 52 | 1025.4 |
| 20260508102555 | 67 | 62 | 2.0 | 4.0 | 0.00 | 0.00 | 0.00 | 51 | 1025.4 |
| 20260508102354 | 67 | 66 | 2.0 | 4.0 | 0.00 | 0.00 | 0.00 | 51 | 1025.4 |
| 20260508102153 | 67 | 61 | 2.0 | 3.0 | 0.00 | 0.00 | 0.00 | 51 | 1025.5 |
| 20260508101954 | 67 | 58 | 2.0 | 3.0 | 0.00 | 0.00 | 0.00 | 51 | 1025.4 |
| 20260508101754 | 68 | 58 | 1.0 | 3.0 | 0.00 | 0.00 | 0.00 | 51 | 1025.4 |
| 20260508101553 | 68 | 58 | 1.0 | 3.0 | 0.00 | 0.00 | 0.00 | 51 | 1025.4 |
| 20260508101354 | 68 | 56 | 1.0 | 4.0 | 0.00 | 0.00 | 0.00 | 51 | 1025.3 |
| 20260508101154 | 68 | 56 | 2.0 | 4.0 | 0.00 | 0.00 | 0.00 | 51 | 1025.3 |
| 20260508100953 | 68 | 52 | 1.0 | 4.0 | 0.00 | 0.00 | 0.00 | 51 | 1025.3 |
| 20260508100752 | 68 | 48 | 1.0 | 4.0 | 0.00 | 0.00 | 0.00 | 50 | 1025.3 |
| 20260508100554 | 68 | 46 | 2.0 | 4.0 | 0.00 | 0.00 | 0.00 | 50 | 1025.3 |
| 20260508100353 | 68 | 62 | 2.0 | 4.0 | 0.00 | 0.00 | 0.00 | 50 | 1025.3 |
| 20260508100153 | 68 | 59 | 1.0 | 3.0 | 0.00 | 0.00 | 0.00 | 50 | 1025.3 |
| 20260508095954 | 68 | 59 | 2.0 | 3.0 | 0.00 | 0.00 | 0.00 | 50 | 1025.2 |
| 20260508095754 | 68 | 59 | 1.0 | 4.0 | 0.00 | 0.00 | 0.00 | 50 | 1025.3 |
| 20260508095554 | 68 | 59 | 2.0 | 6.0 | 0.00 | 0.00 | 0.00 | 50 | 1025.2 |
| 20260508095353 | 69 | 53 | 2.0 | 6.0 | 0.00 | 0.00 | 0.00 | 50 | 1025.3 |
| 20260508095153 | 69 | 51 | 1.0 | 6.0 | 0.00 | 0.00 | 0.00 | 50 | 1025.3 |
| 20260508094953 | 69 | 49 | 2.0 | 6.0 | 0.00 | 0.00 | 0.00 | 50 | 1025.2 |
| 20260508094753 | 69 | 84 | 2.0 | 6.0 | 0.00 | 0.00 | 0.00 | 50 | 1025.2 |
| 20260508094553 | 69 | 61 | 1.0 | 6.0 | 0.00 | 0.00 | 0.00 | 50 | 1025.2 |
| 20260508094353 | 69 | 61 | 1.0 | 6.0 | 0.00 | 0.00 | 0.00 | 49 | 1025.2 |
| 20260508094153 | 69 | 61 | 1.0 | 6.0 | 0.00 | 0.00 | 0.00 | 49 | 1025.2 |
| 20260508093953 | 69 | 52 | 1.0 | 6.0 | 0.00 | 0.00 | 0.00 | 49 | 1025.2 |
| 20260508093753 | 70 | 52 | 2.0 | 6.0 | 0.00 | 0.00 | 0.00 | 49 | 1025.2 |
| 20260508093552 | 70 | 79 | 1.0 | 4.0 | 0.00 | 0.00 | 0.00 | 49 | 1025.1 |
| 20260508093353 | 70 | 108 | 1.0 | 4.0 | 0.00 | 0.00 | 0.00 | 49 | 1025.1 |
| 20260508093153 | 70 | 108 | 2.0 | 6.0 | 0.00 | 0.00 | 0.00 | 49 | 1025.0 |
| 20260508092953 | 70 | 108 | 1.0 | 6.0 | 0.00 | 0.00 | 0.00 | 49 | 1025.0 |
| 20260508092753 | 70 | 101 | 1.0 | 6.0 | 0.00 | 0.00 | 0.00 | 48 | 1025.0 |
| 20260508092552 | 70 | 99 | 2.0 | 6.0 | 0.00 | 0.00 | 0.00 | 48 | 1025.0 |
| 20260508092353 | 70 | 59 | 2.0 | 6.0 | 0.00 | 0.00 | 0.00 | 48 | 1025.0 |
| 20260508092153 | 71 | 75 | 2.0 | 4.0 | 0.00 | 0.00 | 0.00 | 48 | 1024.9 |
| 20260508091953 | 71 | 82 | 3.0 | 6.0 | 0.00 | 0.00 | 0.00 | 48 | 1024.9 |
| 20260508091753 | 71 | 82 | 2.0 | 7.0 | 0.00 | 0.00 | 0.00 | 48 | 1024.8 |
| 20260508091550 | 71 | 82 | 2.0 | 7.0 | 0.00 | 0.00 | 0.00 | 48 | 1024.9 |
| 20260508091349 | 71 | 82 | 2.0 | 7.0 | 0.00 | 0.00 | 0.00 | 48 | 1024.9 |
| 20260508091150 | 71 | 82 | 2.0 | 7.0 | 0.00 | 0.00 | 0.00 | 48 | 1025.0 |
| 20260508090950 | 71 | 107 | 3.0 | 7.0 | 0.00 | 0.00 | 0.00 | 48 | 1024.9 |
| 20260508090750 | 71 | 77 | 1.0 | 5.0 | 0.00 | 0.00 | 0.00 | 48 | 1024.9 |
| 20260508090549 | 71 | 76 | 1.0 | 5.0 | 0.00 | 0.00 | 0.00 | 48 | 1024.8 |
| 20260508090348 | 72 | 115 | 2.0 | 5.0 | 0.00 | 0.00 | 0.00 | 47 | 1024.8 |
| 20260508090147 | 72 | 89 | 2.0 | 5.0 | 0.00 | 0.00 | 0.00 | 47 | 1024.7 |
| 20260508085947 | 72 | 96 | 2.0 | 4.0 | 0.00 | 0.00 | 0.00 | 47 | 1024.8 |
| 20260508085747 | 72 | 121 | 1.0 | 4.0 | 0.00 | 0.00 | 0.00 | 47 | 1024.7 |
| 20260508085547 | 72 | 80 | 1.0 | 4.0 | 0.00 | 0.00 | 0.00 | 46 | 1024.8 |
| 20260508085347 | 72 | 80 | 2.0 | 5.0 | 0.00 | 0.00 | 0.00 | 46 | 1024.6 |
| 20260508085147 | 72 | 72 | 2.0 | 6.0 | 0.00 | 0.00 | 0.00 | 46 | 1024.7 |
| 20260508084947 | 72 | 80 | 2.0 | 6.0 | 0.00 | 0.00 | 0.00 | 46 | 1024.7 |
| 20260508084748 | 72 | 121 | 3.0 | 6.0 | 0.00 | 0.00 | 0.00 | 46 | 1024.7 |
| 20260508084547 | 72 | 70 | 3.0 | 6.0 | 0.00 | 0.00 | 0.00 | 46 | 1024.6 |
| 20260508084347 | 72 | 76 | 3.0 | 6.0 | 0.00 | 0.00 | 0.00 | 46 | 1024.6 |
| 20260508084148 | 72 | 66 | 2.0 | 4.0 | 0.00 | 0.00 | 0.00 | 46 | 1024.7 |
| 20260508083948 | 72 | 66 | 2.0 | 4.0 | 0.00 | 0.00 | 0.00 | 46 | 1024.6 |
| 20260508083747 | 73 | 53 | 1.0 | 4.0 | 0.00 | 0.00 | 0.00 | 46 | 1024.6 |
| 20260508083547 | 73 | 49 | 2.0 | 4.0 | 0.00 | 0.00 | 0.00 | 46 | 1024.6 |
| 20260508083336 | 73 | 80 | 1.0 | 6.0 | 0.00 | 0.00 | 0.00 | 46 | 1024.6 |
| 20260508083136 | 73 | 80 | 1.0 | 6.0 | 0.00 | 0.00 | 0.00 | 46 | 1024.5 |
| 20260508082936 | 73 | 80 | 2.0 | 9.0 | 0.00 | 0.00 | 0.00 | 46 | 1024.6 |
| 20260508082734 | 73 | 104 | 2.0 | 9.0 | 0.00 | 0.00 | 0.00 | 45 | 1024.6 |
| 20260508082534 | 73 | 82 | 2.0 | 9.0 | 0.00 | 0.00 | 0.00 | 45 | 1024.5 |
| 20260508082334 | 73 | 90 | 1.0 | 9.0 | 0.00 | 0.00 | 0.00 | 45 | 1024.6 |
| 20260508082133 | 73 | 86 | 2.0 | 9.0 | 0.00 | 0.00 | 0.00 | 44 | 1024.7 |
| 20260508081933 | 73 | 69 | 3.0 | 6.0 | 0.00 | 0.00 | 0.00 | 44 | 1024.7 |
| 20260508081732 | 73 | 68 | 3.0 | 6.0 | 0.00 | 0.00 | 0.00 | 44 | 1024.7 |
| 20260508081532 | 73 | 59 | 3.0 | 5.0 | 0.00 | 0.00 | 0.00 | 43 | 1024.6 |
| 20260508081333 | 74 | 66 | 2.0 | 7.0 | 0.00 | 0.00 | 0.00 | 43 | 1024.7 |
| 20260508081133 | 74 | 66 | 2.0 | 7.0 | 0.00 | 0.00 | 0.00 | 43 | 1024.6 |
| 20260508080933 | 74 | 66 | 2.0 | 7.0 | 0.00 | 0.00 | 0.00 | 43 | 1024.7 |
| 20260508080733 | 74 | 66 | 2.0 | 7.0 | 0.00 | 0.00 | 0.00 | 43 | 1024.7 |
| 20260508080532 | 74 | 68 | 3.0 | 7.0 | 0.00 | 0.00 | 0.00 | 43 | 1024.7 |
| 20260508080332 | 74 | 61 | 3.0 | 6.0 | 0.00 | 0.00 | 0.00 | 43 | 1024.7 |
| 20260508080131 | 74 | 59 | 2.0 | 6.0 | 0.00 | 0.00 | 0.00 | 43 | 1024.7 |
| 20260508075931 | 74 | 61 | 3.0 | 6.0 | 0.00 | 0.00 | 0.00 | 43 | 1024.7 |
| 20260508075731 | 75 | 49 | 3.0 | 6.0 | 0.00 | 0.00 | 0.00 | 43 | 1024.6 |
| 20260508075531 | 75 | 89 | 2.0 | 5.0 | 0.00 | 0.00 | 0.00 | 42 | 1024.6 |
| 20260508075331 | 75 | 123 | 2.0 | 5.0 | 0.00 | 0.00 | 0.00 | 43 | 1024.6 |
| 20260508075132 | 75 | 93 | 3.0 | 5.0 | 0.00 | 0.00 | 0.00 | 42 | 1024.6 |
| 20260508074932 | 75 | 90 | 2.0 | 6.0 | 0.00 | 0.00 | 0.00 | 42 | 1024.6 |
| 20260508074730 | 75 | 80 | 3.0 | 6.0 | 0.00 | 0.00 | 0.00 | 42 | 1024.6 |
| 20260508074530 | 76 | 107 | 1.0 | 6.0 | 0.00 | 0.00 | 0.00 | 42 | 1024.6 |
| 20260508074331 | 76 | 107 | 3.0 | 6.0 | 0.00 | 0.00 | 0.00 | 42 | 1024.7 |
| 20260508074131 | 76 | 121 | 2.0 | 6.0 | 0.00 | 0.00 | 0.00 | 42 | 1024.7 |
| 20260508073931 | 76 | 131 | 2.0 | 6.0 | 0.00 | 0.00 | 0.00 | 42 | 1024.7 |
| 20260508073731 | 76 | 108 | 2.0 | 6.0 | 0.00 | 0.00 | 0.00 | 42 | 1024.6 |
| 20260508073529 | 76 | 63 | 3.0 | 6.0 | 0.00 | 0.00 | 0.00 | 42 | 1024.7 |
| 20260508073329 | 76 | 82 | 4.0 | 6.0 | 0.00 | 0.00 | 0.00 | 41 | 1024.7 |
| 20260508073128 | 77 | 38 | 3.0 | 6.0 | 0.00 | 0.00 | 0.00 | 42 | 1024.6 |
| 20260508072928 | 76 | 73 | 2.0 | 6.0 | 0.00 | 0.00 | 0.00 | 41 | 1024.7 |
| 20260508072722 | 76 | 73 | 2.0 | 6.0 | 0.00 | 0.00 | 0.00 | 42 | 1024.7 |
| 20260508072522 | 76 | 72 | 1.0 | 6.0 | 0.00 | 0.00 | 0.00 | 42 | 1024.6 |
| 20260508072321 | 76 | 72 | 2.0 | 6.0 | 0.00 | 0.00 | 0.00 | 41 | 1024.6 |
| 20260508072121 | 76 | 89 | 3.0 | 6.0 | 0.00 | 0.00 | 0.00 | 41 | 1024.6 |
| 20260508071920 | 77 | 68 | 4.0 | 6.0 | 0.00 | 0.00 | 0.00 | 41 | 1024.7 |
| 20260508071719 | 77 | 83 | 3.0 | 6.0 | 0.00 | 0.00 | 0.00 | 41 | 1024.6 |
| 20260508071519 | 77 | 61 | 3.0 | 6.0 | 0.00 | 0.00 | 0.00 | 42 | 1024.6 |
| 20260508071318 | 77 | 62 | 2.0 | 6.0 | 0.00 | 0.00 | 0.00 | 42 | 1024.5 |
| 20260508071119 | 76 | 55 | 3.0 | 6.0 | 0.00 | 0.00 | 0.00 | 42 | 1024.5 |
| 20260508070918 | 76 | 87 | 2.0 | 6.0 | 0.00 | 0.00 | 0.00 | 42 | 1024.6 |
| 20260508070717 | 76 | 123 | 3.0 | 6.0 | 0.00 | 0.00 | 0.00 | 42 | 1024.5 |
| 20260508070517 | 76 | 99 | 2.0 | 6.0 | 0.00 | 0.00 | 0.00 | 42 | 1024.6 |
| 20260508070317 | 76 | 59 | 2.0 | 6.0 | 0.00 | 0.00 | 0.00 | 42 | 1024.6 |
| 20260508070116 | 77 | 58 | 3.0 | 10.0 | 0.00 | 0.00 | 0.00 | 42 | 1024.6 |
| 20260508065916 | 77 | 63 | 3.0 | 10.0 | 0.00 | 0.00 | 0.00 | 41 | 1024.6 |
| 20260508065715 | 77 | 66 | 2.0 | 10.0 | 0.00 | 0.00 | 0.00 | 41 | 1024.6 |
| 20260508065514 | 77 | 76 | 3.0 | 10.0 | 0.00 | 0.00 | 0.00 | 41 | 1024.6 |
| 20260508065315 | 77 | 108 | 4.0 | 10.0 | 0.00 | 0.00 | 0.00 | 41 | 1024.7 |
| 20260508065114 | 77 | 68 | 3.0 | 5.0 | 0.00 | 0.00 | 0.00 | 41 | 1024.7 |
| 20260508064910 | 77 | 72 | 2.0 | 5.0 | 0.00 | 0.00 | 0.00 | 41 | 1024.7 |
| 20260508064710 | 77 | 124 | 2.0 | 7.0 | 0.00 | 0.00 | 0.00 | 41 | 1024.7 |
| 20260508064510 | 77 | 73 | 3.0 | 7.0 | 0.00 | 0.00 | 0.00 | 41 | 1024.7 |
| 20260508064309 | 77 | 107 | 2.0 | 7.0 | 0.00 | 0.00 | 0.00 | 41 | 1024.7 |
| 20260508064109 | 77 | 115 | 3.0 | 7.0 | 0.00 | 0.00 | 0.00 | 41 | 1024.8 |
| 20260508063908 | 77 | 130 | 3.0 | 7.0 | 0.00 | 0.00 | 0.00 | 42 | 1024.7 |
| 20260508063708 | 77 | 83 | 2.0 | 7.0 | 0.00 | 0.00 | 0.00 | 42 | 1024.8 |
| 20260508063508 | 77 | 83 | 2.0 | 9.0 | 0.00 | 0.00 | 0.00 | 42 | 1024.8 |
| 20260508063307 | 77 | 92 | 2.0 | 9.0 | 0.00 | 0.00 | 0.00 | 42 | 1024.8 |
| 20260508063106 | 77 | 63 | 4.0 | 9.0 | 0.00 | 0.00 | 0.00 | 41 | 1024.9 |
| 20260508062906 | 77 | 55 | 4.0 | 9.0 | 0.00 | 0.00 | 0.00 | 41 | 1024.8 |
| 20260508062707 | 77 | 25 | 4.0 | 9.0 | 0.00 | 0.00 | 0.00 | 41 | 1024.8 |
| 20260508062504 | 77 | 63 | 3.0 | 5.0 | 0.00 | 0.00 | 0.00 | 42 | 1024.8 |
| 20260508062306 | 77 | 128 | 2.0 | 5.0 | 0.00 | 0.00 | 0.00 | 42 | 1024.8 |
| 20260508062104 | 77 | 121 | 2.0 | 6.0 | 0.00 | 0.00 | 0.00 | 44 | 1024.9 |
| 20260508061904 | 77 | 130 | 2.0 | 6.0 | 0.00 | 0.00 | 0.00 | 44 | 1024.9 |
| 20260508061704 | 77 | 59 | 1.0 | 6.0 | 0.00 | 0.00 | 0.00 | 43 | 1024.9 |
| 20260508061504 | 77 | 93 | 3.0 | 7.0 | 0.00 | 0.00 | 0.00 | 42 | 1024.9 |
| 20260508061304 | 77 | 94 | 3.0 | 7.0 | 0.00 | 0.00 | 0.00 | 43 | 1025.1 |
| 20260508061105 | 77 | 55 | 3.0 | 7.0 | 0.00 | 0.00 | 0.00 | 42 | 1025.0 |
| 20260508060904 | 77 | 65 | 4.0 | 7.0 | 0.00 | 0.00 | 0.00 | 42 | 1025.0 |
| 20260508060704 | 77 | 356 | 4.0 | 7.0 | 0.00 | 0.00 | 0.00 | 42 | 1025.0 |
| 20260508060504 | 77 | 48 | 4.0 | 6.0 | 0.00 | 0.00 | 0.00 | 42 | 1025.1 |
| 20260508060302 | 77 | 55 | 2.0 | 5.0 | 0.00 | 0.00 | 0.00 | 43 | 1025.2 |
| 20260508055902 | 76 | 61 | 2.0 | 6.0 | 0.00 | 0.00 | 0.00 | 44 | 1025.2 |
| 20260508055703 | 76 | 34 | 2.0 | 6.0 | 0.00 | 0.00 | 0.00 | 43 | 1025.3 |
| 20260508055502 | 76 | 45 | 3.0 | 6.0 | 0.00 | 0.00 | 0.00 | 43 | 1025.3 |
| 20260508055306 | 76 | 350 | 3.0 | 9.0 | 0.00 | 0.00 | 0.00 | 42 | 1025.3 |
| 20260508055102 | 76 | 58 | 4.0 | 9.0 | 0.00 | 0.00 | 0.00 | 42 | 1025.4 |
| 20260508054902 | 76 | 59 | 3.0 | 9.0 | 0.00 | 0.00 | 0.00 | 42 | 1025.4 |
| 20260508054702 | 76 | 66 | 4.0 | 9.0 | 0.00 | 0.00 | 0.00 | 42 | 1025.4 |
| 20260508054503 | 76 | 76 | 4.0 | 9.0 | 0.00 | 0.00 | 0.00 | 42 | 1025.4 |
| 20260508054303 | 77 | 58 | 3.0 | 6.0 | 0.00 | 0.00 | 0.00 | 42 | 1025.4 |
| 20260508054103 | 77 | 68 | 3.0 | 7.0 | 0.00 | 0.00 | 0.00 | 42 | 1025.5 |
| 20260508053902 | 77 | 110 | 3.0 | 7.0 | 0.00 | 0.00 | 0.00 | 43 | 1025.5 |
| 20260508053702 | 77 | 92 | 3.0 | 7.0 | 0.00 | 0.00 | 0.00 | 43 | 1025.5 |
| 20260508053502 | 77 | 104 | 2.0 | 7.0 | 0.00 | 0.00 | 0.00 | 42 | 1025.4 |
| 20260508053302 | 76 | 52 | 3.0 | 7.0 | 0.00 | 0.00 | 0.00 | 43 | 1025.5 |
| 20260508053107 | 76 | 87 | 3.0 | 7.0 | 0.00 | 0.00 | 0.00 | 43 | 1025.5 |
| 20260508052935 | 76 | 46 | 3.0 | 6.0 | 0.00 | 0.00 | 0.00 | 44 | 1025.5 |
| 20260508052702 | 76 | 66 | 2.0 | 7.0 | 0.00 | 0.00 | 0.00 | 45 | 1025.5 |
| 20260508052502 | 76 | 14 | 2.0 | 7.0 | 0.00 | 0.00 | 0.00 | 44 | 1025.6 |
| 20260508052306 | 76 | 79 | 3.0 | 7.0 | 0.00 | 0.00 | 0.00 | 44 | 1025.5 |
| 20260508052116 | 76 | 73 | 4.0 | 7.0 | 0.00 | 0.00 | 0.00 | 44 | 1025.5 |
| 20260508051902 | 76 | 77 | 3.0 | 7.0 | 0.00 | 0.00 | 0.00 | 44 | 1025.6 |
| 20260508051702 | 76 | 121 | 4.0 | 7.0 | 0.00 | 0.00 | 0.00 | 45 | 1025.7 |
| 20260508051514 | 76 | 76 | 2.0 | 7.0 | 0.00 | 0.00 | 0.00 | 45 | 1025.7 |
| 20260508051302 | 76 | 90 | 2.0 | 7.0 | 0.00 | 0.00 | 0.00 | 45 | 1025.8 |
| 20260508051106 | 76 | 20 | 4.0 | 7.0 | 0.00 | 0.00 | 0.00 | 45 | 1025.8 |
| 20260508050902 | 76 | 51 | 3.0 | 5.0 | 0.00 | 0.00 | 0.00 | 45 | 1025.8 |
| 20260508050717 | 76 | 79 | 3.0 | 6.0 | 0.00 | 0.00 | 0.00 | 45 | 1025.7 |
| 20260508050503 | 76 | 44 | 2.0 | 6.0 | 0.00 | 0.00 | 0.00 | 46 | 1025.8 |
| 20260508050302 | 75 | 75 | 2.0 | 6.0 | 0.00 | 0.00 | 0.00 | 46 | 1025.8 |
| 20260508045902 | 75 | 32 | 4.0 | 9.0 | 0.00 | 0.00 | 0.00 | 45 | 1025.8 |
| 20260508045702 | 75 | 97 | 3.0 | 9.0 | 0.00 | 0.00 | 0.00 | 46 | 1025.9 |
| 20260508045502 | 75 | 65 | 3.0 | 9.0 | 0.00 | 0.00 | 0.00 | 47 | 1025.9 |
| 20260508045306 | 75 | 62 | 3.0 | 9.0 | 0.00 | 0.00 | 0.00 | 47 | 1025.9 |
| 20260508045101 | 75 | 35 | 4.0 | 9.0 | 0.00 | 0.00 | 0.00 | 48 | 1025.9 |
| 20260508044901 | 75 | 52 | 3.0 | 7.0 | 0.00 | 0.00 | 0.00 | 48 | 1026.0 |
| 20260508044702 | 75 | 62 | 2.0 | 7.0 | 0.00 | 0.00 | 0.00 | 48 | 1026.0 |
| 20260508044502 | 74 | 29 | 3.0 | 7.0 | 0.00 | 0.00 | 0.00 | 49 | 1026.0 |
| 20260508044303 | 74 | 86 | 2.0 | 7.0 | 0.00 | 0.00 | 0.00 | 49 | 1026.0 |
| 20260508044102 | 74 | 87 | 2.0 | 7.0 | 0.00 | 0.00 | 0.00 | 49 | 1026.1 |
| 20260508043857 | 74 | 162 | 2.0 | 7.0 | 0.00 | 0.00 | 0.00 | 49 | 1026.2 |
| 20260508043656 | 74 | 93 | 4.0 | 7.0 | 0.00 | 0.00 | 0.00 | 49 | 1026.2 |
| 20260508043456 | 74 | 106 | 3.0 | 7.0 | 0.00 | 0.00 | 0.00 | 48 | 1026.2 |
| 20260508043256 | 74 | 66 | 3.0 | 9.0 | 0.00 | 0.00 | 0.00 | 49 | 1026.3 |
| 20260508043055 | 74 | 132 | 3.0 | 9.0 | 0.00 | 0.00 | 0.00 | 50 | 1026.3 |
| 20260508042854 | 73 | 124 | 3.0 | 9.0 | 0.00 | 0.00 | 0.00 | 50 | 1026.3 |
| 20260508042655 | 73 | 53 | 3.0 | 9.0 | 0.00 | 0.00 | 0.00 | 50 | 1026.4 |
| 20260508042454 | 73 | 63 | 5.0 | 11.0 | 0.00 | 0.00 | 0.00 | 49 | 1026.5 |
| 20260508042253 | 73 | 62 | 4.0 | 11.0 | 0.00 | 0.00 | 0.00 | 50 | 1026.5 |
| 20260508042054 | 73 | 38 | 5.0 | 11.0 | 0.00 | 0.00 | 0.00 | 50 | 1026.7 |
| 20260508041853 | 73 | 55 | 4.0 | 11.0 | 0.00 | 0.00 | 0.00 | 50 | 1026.6 |
| 20260508041652 | 73 | 41 | 5.0 | 11.0 | 0.00 | 0.00 | 0.00 | 50 | 1026.6 |
| 20260508041452 | 73 | 52 | 3.0 | 9.0 | 0.00 | 0.00 | 0.00 | 51 | 1026.7 |
| 20260508041251 | 73 | 46 | 4.0 | 9.0 | 0.00 | 0.00 | 0.00 | 50 | 1026.8 |
| 20260508041051 | 74 | 44 | 4.0 | 7.0 | 0.00 | 0.00 | 0.00 | 50 | 1026.8 |
| 20260508040851 | 73 | 75 | 4.0 | 7.0 | 0.00 | 0.00 | 0.00 | 51 | 1026.8 |
| 20260508040650 | 73 | 48 | 2.0 | 6.0 | 0.00 | 0.00 | 0.00 | 51 | 1026.9 |
| 20260508040450 | 73 | 51 | 3.0 | 6.0 | 0.00 | 0.00 | 0.00 | 51 | 1026.8 |
| 20260508040249 | 73 | 41 | 3.0 | 6.0 | 0.00 | 0.00 | 0.00 | 51 | 1026.8 |
| 20260508040046 | 73 | 69 | 3.0 | 6.0 | 0.00 | 0.00 | 0.00 | 52 | 1027.0 |
| 20260508035845 | 73 | 53 | 4.0 | 6.0 | 0.00 | 0.00 | 0.00 | 52 | 1027.0 |
| 20260508035646 | 73 | 75 | 4.0 | 7.0 | 0.00 | 0.00 | 0.00 | 52 | 1026.9 |
| 20260508035444 | 72 | 97 | 4.0 | 9.0 | 0.00 | 0.00 | 0.00 | 52 | 1027.1 |
| 20260508035244 | 72 | 66 | 3.0 | 9.0 | 0.00 | 0.00 | 0.00 | 53 | 1027.1 |
| 20260508035044 | 72 | 61 | 2.0 | 10.0 | 0.00 | 0.00 | 0.00 | 53 | 1027.1 |
| 20260508034844 | 72 | 63 | 4.0 | 10.0 | 0.00 | 0.00 | 0.00 | 52 | 1027.2 |
| 20260508034642 | 72 | 350 | 3.0 | 10.0 | 0.00 | 0.00 | 0.00 | 52 | 1027.2 |
| 20260508034443 | 72 | 72 | 5.0 | 10.0 | 0.00 | 0.00 | 0.00 | 51 | 1027.3 |
| 20260508034241 | 71 | 68 | 4.0 | 11.0 | 0.00 | 0.00 | 0.00 | 52 | 1027.4 |
| 20260508034041 | 71 | 27 | 5.0 | 11.0 | 0.00 | 0.00 | 0.00 | 52 | 1027.5 |
| 20260508033841 | 71 | 61 | 5.0 | 11.0 | 0.00 | 0.00 | 0.00 | 52 | 1027.4 |
| 20260508033640 | 71 | 68 | 6.0 | 11.0 | 0.00 | 0.00 | 0.00 | 51 | 1027.5 |
| 20260508033439 | 71 | 68 | 6.0 | 11.0 | 0.00 | 0.00 | 0.00 | 52 | 1027.6 |
| 20260508033238 | 71 | 44 | 4.0 | 10.0 | 0.00 | 0.00 | 0.00 | 52 | 1027.6 |
| 20260508033038 | 71 | 72 | 3.0 | 10.0 | 0.00 | 0.00 | 0.00 | 52 | 1027.6 |
| 20260508032839 | 71 | 52 | 5.0 | 10.0 | 0.00 | 0.00 | 0.00 | 51 | 1027.7 |
| 20260508032639 | 71 | 58 | 5.0 | 10.0 | 0.00 | 0.00 | 0.00 | 52 | 1027.7 |
| 20260508032438 | 71 | 80 | 6.0 | 10.0 | 0.00 | 0.00 | 0.00 | 52 | 1027.8 |
| 20260508032238 | 71 | 77 | 4.0 | 10.0 | 0.00 | 0.00 | 0.00 | 52 | 1027.8 |
| 20260508032038 | 71 | 52 | 6.0 | 10.0 | 0.00 | 0.00 | 0.00 | 52 | 1027.7 |
| 20260508031838 | 71 | 59 | 4.0 | 10.0 | 0.00 | 0.00 | 0.00 | 52 | 1027.8 |
| 20260508031639 | 71 | 73 | 5.0 | 10.0 | 0.00 | 0.00 | 0.00 | 51 | 1027.9 |
| 20260508031439 | 71 | 46 | 4.0 | 10.0 | 0.00 | 0.00 | 0.00 | 52 | 1028.0 |
| 20260508031239 | 71 | 123 | 5.0 | 13.0 | 0.00 | 0.00 | 0.00 | 51 | 1027.9 |
| 20260508031038 | 71 | 41 | 5.0 | 13.0 | 0.00 | 0.00 | 0.00 | 52 | 1027.9 |
| 20260508030838 | 71 | 63 | 3.0 | 13.0 | 0.00 | 0.00 | 0.00 | 53 | 1028.0 |
| 20260508030638 | 71 | 75 | 4.0 | 13.0 | 0.00 | 0.00 | 0.00 | 53 | 1028.0 |
| 20260508030438 | 71 | 56 | 6.0 | 13.0 | 0.00 | 0.00 | 0.00 | 53 | 1027.9 |
| 20260508030238 | 71 | 110 | 4.0 | 11.0 | 0.00 | 0.00 | 0.00 | 53 | 1028.0 |
| 20260508030039 | 71 | 53 | 4.0 | 11.0 | 0.00 | 0.00 | 0.00 | 53 | 1028.1 |
| 20260508025838 | 71 | 75 | 5.0 | 12.0 | 0.00 | 0.00 | 0.00 | 53 | 1028.0 |
| 20260508025638 | 71 | 58 | 5.0 | 12.0 | 0.00 | 0.00 | 0.00 | 53 | 1028.0 |
| 20260508025437 | 71 | 121 | 6.0 | 12.0 | 0.00 | 0.00 | 0.00 | 53 | 1028.0 |
| 20260508025234 | 71 | 51 | 5.0 | 12.0 | 0.00 | 0.00 | 0.00 | 53 | 1028.0 |
| 20260508025033 | 70 | 4 | 4.0 | 12.0 | 0.00 | 0.00 | 0.00 | 55 | 1028.2 |
| 20260508024833 | 70 | 76 | 3.0 | 7.0 | 0.00 | 0.00 | 0.00 | 55 | 1028.2 |
| 20260508024633 | 70 | 45 | 3.0 | 9.0 | 0.00 | 0.00 | 0.00 | 55 | 1028.2 |
| 20260508024433 | 70 | 18 | 3.0 | 9.0 | 0.00 | 0.00 | 0.00 | 56 | 1028.3 |
| 20260508024233 | 69 | 53 | 2.0 | 10.0 | 0.00 | 0.00 | 0.00 | 56 | 1028.2 |
| 20260508024033 | 69 | 52 | 5.0 | 10.0 | 0.00 | 0.00 | 0.00 | 55 | 1028.3 |
| 20260508023833 | 69 | 56 | 5.0 | 10.0 | 0.00 | 0.00 | 0.00 | 55 | 1028.3 |
| 20260508023631 | 69 | 53 | 5.0 | 10.0 | 0.00 | 0.00 | 0.00 | 55 | 1028.4 |
| 20260508023430 | 69 | 62 | 4.0 | 10.0 | 0.00 | 0.00 | 0.00 | 55 | 1028.4 |
| 20260508023231 | 69 | 59 | 4.0 | 9.0 | 0.00 | 0.00 | 0.00 | 55 | 1028.4 |
| 20260508023029 | 69 | 55 | 4.0 | 9.0 | 0.00 | 0.00 | 0.00 | 55 | 1028.4 |
| 20260508022828 | 69 | 68 | 4.0 | 9.0 | 0.00 | 0.00 | 0.00 | 55 | 1028.4 |
| 20260508022628 | 69 | 66 | 4.0 | 9.0 | 0.00 | 0.00 | 0.00 | 55 | 1028.5 |
| 20260508022428 | 69 | 59 | 4.0 | 9.0 | 0.00 | 0.00 | 0.00 | 56 | 1028.5 |
| 20260508022227 | 69 | 61 | 3.0 | 9.0 | 0.00 | 0.00 | 0.00 | 56 | 1028.4 |
| 20260508022027 | 69 | 58 | 5.0 | 9.0 | 0.00 | 0.00 | 0.00 | 56 | 1028.5 |
| 20260508021827 | 69 | 68 | 2.0 | 7.0 | 0.00 | 0.00 | 0.00 | 57 | 1028.4 |
| 20260508021626 | 68 | 51 | 3.0 | 7.0 | 0.00 | 0.00 | 0.00 | 57 | 1028.5 |
| 20260508021425 | 68 | 62 | 4.0 | 11.0 | 0.00 | 0.00 | 0.00 | 57 | 1028.6 |
| 20260508021225 | 68 | 84 | 4.0 | 11.0 | 0.00 | 0.00 | 0.00 | 57 | 1028.5 |
| 20260508021024 | 68 | 70 | 3.0 | 11.0 | 0.00 | 0.00 | 0.00 | 58 | 1028.5 |
| 20260508020825 | 68 | 68 | 3.0 | 11.0 | 0.00 | 0.00 | 0.00 | 58 | 1028.6 |
| 20260508020624 | 68 | 66 | 5.0 | 14.0 | 0.00 | 0.00 | 0.00 | 57 | 1028.6 |
| 20260508020423 | 67 | 77 | 5.0 | 14.0 | 0.00 | 0.00 | 0.00 | 57 | 1028.6 |
| 20260508020223 | 67 | 48 | 6.0 | 14.0 | 0.00 | 0.00 | 0.00 | 57 | 1028.5 |
| 20260508020021 | 67 | 61 | 6.0 | 14.0 | 0.00 | 0.00 | 0.00 | 57 | 1028.5 |
| 20260508015801 | 67 | 59 | 6.0 | 14.0 | 0.00 | 0.00 | 0.00 | 57 | 1028.6 |
| 20260508015601 | 67 | 48 | 5.0 | 14.0 | 0.00 | 0.00 | 0.00 | 57 | 1028.7 |
| 20260508015400 | 67 | 69 | 5.0 | 11.0 | 0.00 | 0.00 | 0.00 | 57 | 1028.7 |
| 20260508015200 | 67 | 63 | 6.0 | 11.0 | 0.00 | 0.00 | 0.00 | 57 | 1028.7 |
| 20260508014959 | 67 | 59 | 6.0 | 11.0 | 0.00 | 0.00 | 0.00 | 57 | 1028.7 |
| 20260508014759 | 68 | 83 | 6.0 | 11.0 | 0.00 | 0.00 | 0.00 | 57 | 1028.7 |
| 20260508014559 | 68 | 8 | 6.0 | 11.0 | 0.00 | 0.00 | 0.00 | 57 | 1028.8 |
| 20260508014358 | 67 | 59 | 4.0 | 11.0 | 0.00 | 0.00 | 0.00 | 57 | 1028.7 |
| 20260508014158 | 67 | 42 | 4.0 | 11.0 | 0.00 | 0.00 | 0.00 | 58 | 1028.7 |
| 20260508013957 | 67 | 75 | 5.0 | 10.0 | 0.00 | 0.00 | 0.00 | 58 | 1028.8 |
| 20260508013757 | 67 | 46 | 4.0 | 10.0 | 0.00 | 0.00 | 0.00 | 57 | 1028.8 |
| 20260508013556 | 67 | 49 | 6.0 | 10.0 | 0.00 | 0.00 | 0.00 | 58 | 1028.8 |
| 20260508013354 | 67 | 93 | 4.0 | 7.0 | 0.00 | 0.00 | 0.00 | 59 | 1028.7 |
| 20260508013150 | 67 | 66 | 4.0 | 7.0 | 0.00 | 0.00 | 0.00 | 59 | 1028.8 |
| 20260508012949 | 67 | 79 | 4.0 | 9.0 | 0.00 | 0.00 | 0.00 | 59 | 1028.9 |
| 20260508012749 | 66 | 58 | 4.0 | 9.0 | 0.00 | 0.00 | 0.00 | 59 | 1028.9 |
| 20260508012549 | 66 | 65 | 4.0 | 9.0 | 0.00 | 0.00 | 0.00 | 60 | 1028.9 |
| 20260508012348 | 66 | 42 | 4.0 | 9.0 | 0.00 | 0.00 | 0.00 | 60 | 1029.0 |
| 20260508012148 | 66 | 65 | 5.0 | 9.0 | 0.00 | 0.00 | 0.00 | 60 | 1029.0 |
| 20260508011948 | 66 | 61 | 3.0 | 9.0 | 0.00 | 0.00 | 0.00 | 61 | 1029.1 |
| 20260508011748 | 65 | 75 | 4.0 | 9.0 | 0.00 | 0.00 | 0.00 | 61 | 1029.1 |
| 20260508011546 | 65 | 55 | 5.0 | 11.0 | 0.00 | 0.00 | 0.00 | 61 | 1029.1 |
| 20260508011346 | 65 | 77 | 4.0 | 11.0 | 0.00 | 0.00 | 0.00 | 61 | 1029.1 |
| 20260508011146 | 65 | 76 | 4.0 | 11.0 | 0.00 | 0.00 | 0.00 | 62 | 1029.2 |
| 20260508010945 | 64 | 69 | 5.0 | 12.0 | 0.00 | 0.00 | 0.00 | 62 | 1029.2 |
| 20260508010744 | 64 | 58 | 4.0 | 12.0 | 0.00 | 0.00 | 0.00 | 63 | 1029.3 |
| 20260508010544 | 64 | 56 | 4.0 | 12.0 | 0.00 | 0.00 | 0.00 | 64 | 1029.3 |
| 20260508010345 | 64 | 68 | 4.0 | 12.0 | 0.00 | 0.00 | 0.00 | 64 | 1029.2 |
| 20260508010143 | 63 | 75 | 5.0 | 12.0 | 0.00 | 0.00 | 0.00 | 64 | 1029.3 |
| 20260508005938 | 63 | 63 | 4.0 | 11.0 | 0.00 | 0.00 | 0.00 | 65 | 1029.3 |
| 20260508005738 | 63 | 45 | 5.0 | 11.0 | 0.00 | 0.00 | 0.00 | 65 | 1029.4 |
| 20260508005538 | 63 | 42 | 4.0 | 11.0 | 0.00 | 0.00 | 0.00 | 65 | 1029.4 |
| 20260508005337 | 63 | 68 | 5.0 | 11.0 | 0.00 | 0.00 | 0.00 | 65 | 1029.5 |
| 20260508005138 | 63 | 3 | 6.0 | 11.0 | 0.00 | 0.00 | 0.00 | 65 | 1029.4 |
| 20260508004938 | 62 | 63 | 5.0 | 11.0 | 0.00 | 0.00 | 0.00 | 65 | 1029.4 |
| 20260508004738 | 62 | 63 | 6.0 | 11.0 | 0.00 | 0.00 | 0.00 | 65 | 1029.4 |
| 20260508004538 | 62 | 34 | 4.0 | 11.0 | 0.00 | 0.00 | 0.00 | 66 | 1029.4 |
| 20260508004338 | 62 | 62 | 4.0 | 11.0 | 0.00 | 0.00 | 0.00 | 66 | 1029.5 |
| 20260508004139 | 62 | 56 | 6.0 | 11.0 | 0.00 | 0.00 | 0.00 | 66 | 1029.4 |
| 20260508003937 | 62 | 90 | 5.0 | 9.0 | 0.00 | 0.00 | 0.00 | 66 | 1029.5 |
| 20260508003736 | 62 | 58 | 4.0 | 9.0 | 0.00 | 0.00 | 0.00 | 66 | 1029.4 |
| 20260508003534 | 61 | 70 | 4.0 | 9.0 | 0.00 | 0.00 | 0.00 | 66 | 1029.4 |
| 20260508003334 | 61 | 72 | 4.0 | 9.0 | 0.00 | 0.00 | 0.00 | 66 | 1029.2 |
| 20260508003134 | 61 | 65 | 4.0 | 6.0 | 0.00 | 0.00 | 0.00 | 67 | 1029.2 |
| 20260508002933 | 61 | 45 | 4.0 | 7.0 | 0.00 | 0.00 | 0.00 | 67 | 1029.2 |
| 20260508002733 | 61 | 58 | 4.0 | 9.0 | 0.00 | 0.00 | 0.00 | 67 | 1029.1 |
| 20260508002534 | 61 | 56 | 4.0 | 9.0 | 0.00 | 0.00 | 0.00 | 68 | 1029.1 |
| 20260508002334 | 61 | 62 | 3.0 | 10.0 | 0.00 | 0.00 | 0.00 | 67 | 1029.0 |
| 20260508002131 | 60 | 62 | 4.0 | 10.0 | 0.00 | 0.00 | 0.00 | 68 | 1028.9 |
| 20260508001929 | 60 | 59 | 4.0 | 10.0 | 0.00 | 0.00 | 0.00 | 68 | 1029.0 |
| 20260508001728 | 60 | 66 | 3.0 | 10.0 | 0.00 | 0.00 | 0.00 | 68 | 1029.0 |
| 20260508001527 | 60 | 61 | 4.0 | 6.0 | 0.00 | 0.00 | 0.00 | 68 | 1029.0 |
| 20260508001327 | 60 | 59 | 4.0 | 6.0 | 0.00 | 0.00 | 0.00 | 68 | 1029.0 |
| 20260508001126 | 60 | 65 | 3.0 | 7.0 | 0.00 | 0.00 | 0.00 | 68 | 1029.1 |
| 20260508000925 | 60 | 68 | 4.0 | 7.0 | 0.00 | 0.00 | 0.00 | 68 | 1029.1 |
| 20260508000727 | 60 | 62 | 4.0 | 7.0 | 0.00 | 0.00 | 0.00 | 69 | 1029.1 |
| 20260508000525 | 59 | 49 | 3.0 | 7.0 | 0.00 | 0.00 | 0.00 | 69 | 1029.1 |
| 20260508000327 | 59 | 84 | 3.0 | 7.0 | 0.00 | 0.00 | 0.00 | 69 | 1029.1 |
| 20260508000124 | 59 | 59 | 2.0 | 5.0 | 0.00 | 0.00 | 0.00 | 69 | 1029.1 |
| 20260507235924 | 59 | 61 | 3.0 | 5.0 | 0.00 | 0.00 | 0.00 | 69 | 1029.0 |
| 20260507235726 | 59 | 94 | 3.0 | 5.0 | 0.00 | 0.00 | 0.00 | 69 | 1029.1 |
| 20260507235523 | 59 | 75 | 3.0 | 5.0 | 0.00 | 0.00 | 0.00 | 70 | 1029.0 |
| 20260507235320 | 59 | 69 | 3.0 | 5.0 | 0.00 | 0.00 | 0.00 | 70 | 1029.0 |
| 20260507235119 | 59 | 70 | 4.0 | 5.0 | 0.00 | 0.00 | 0.00 | 70 | 1029.1 |
| 20260507234919 | 58 | 80 | 2.0 | 5.0 | 0.00 | 0.00 | 0.00 | 70 | 1029.0 |
| 20260507234718 | 58 | 25 | 3.0 | 5.0 | 0.00 | 0.00 | 0.00 | 70 | 1029.0 |
| 20260507234518 | 58 | 66 | 3.0 | 5.0 | 0.00 | 0.00 | 0.00 | 70 | 1029.0 |
| 20260507234312 | 58 | 58 | 2.0 | 5.0 | 0.00 | 0.00 | 0.00 | 70 | 1028.9 |
| 20260507234111 | 58 | 62 | 3.0 | 5.0 | 0.00 | 0.00 | 0.00 | 70 | 1029.0 |
| 20260507233910 | 58 | 62 | 3.0 | 5.0 | 0.00 | 0.00 | 0.00 | 70 | 1029.0 |
| 20260507233710 | 58 | 55 | 2.0 | 4.0 | 0.00 | 0.00 | 0.00 | 70 | 1029.0 |
| 20260507233510 | 58 | 63 | 3.0 | 4.0 | 0.00 | 0.00 | 0.00 | 70 | 1029.0 |
| 20260507233310 | 58 | 65 | 2.0 | 4.0 | 0.00 | 0.00 | 0.00 | 71 | 1028.9 |
| 20260507233109 | 58 | 66 | 3.0 | 4.0 | 0.00 | 0.00 | 0.00 | 71 | 1028.9 |
| 20260507232909 | 58 | 65 | 2.0 | 4.0 | 0.00 | 0.00 | 0.00 | 71 | 1028.9 |
| 20260507232708 | 58 | 63 | 2.0 | 4.0 | 0.00 | 0.00 | 0.00 | 71 | 1028.8 |
| 20260507232508 | 58 | 63 | 2.0 | 4.0 | 0.00 | 0.00 | 0.00 | 71 | 1028.8 |
| 20260507232307 | 57 | 28 | 3.0 | 4.0 | 0.00 | 0.00 | 0.00 | 71 | 1028.8 |
| 20260507232107 | 57 | 68 | 2.0 | 5.0 | 0.00 | 0.00 | 0.00 | 71 | 1028.8 |
| 20260507231907 | 57 | 70 | 3.0 | 5.0 | 0.00 | 0.00 | 0.00 | 71 | 1028.7 |
| 20260507231706 | 57 | 80 | 2.0 | 5.0 | 0.00 | 0.00 | 0.00 | 71 | 1028.7 |
| 20260507231506 | 57 | 66 | 2.0 | 6.0 | 0.00 | 0.00 | 0.00 | 71 | 1028.7 |